Time,TemperatureF,DewpointF,PressureIn,WindDirection,WindDirectionDegrees,WindSpeedMPH,WindSpeedGustMPH,Humidity,HourlyPrecipIn,Conditions,Clouds,dailyrainin,SoftwareType,DateUTC
2013-06-25 00:52:00,83.0,-99.9,-100.00,North,-999,-999.0,-999.0,-999,-99.99,,,-99.99,,2013-06-25 04:52:00,
2013-06-25 01:02:00,83.0,-99.9,30.09,North,-999,-999.0,-999.0,-999,-99.99,,,-99.99,,2013-06-25 05:02:00,
2013-06-25 01:11:00,83.0,-99.9,30.08,North,-999,-999.0,-999.0,-999,-99.99,,,-99.99,,2013-06-25 05:11:00,
2013-06-25 01:45:00,83.0,-99.9,30.08,North,-999,-999.0,-999.0,-999,-99.99,,,-99.99,,2013-06-25 05:45:00,
2013-06-25 02:22:00,83.0,-99.9,-100.00,North,-999,-999.0,-999.0,-999,-99.99,,,-99.99,,2013-06-25 06:22:00,
2013-06-25 02:43:00,83.0,-99.9,30.07,North,-999,-999.0,-999.0,-999,-99.99,,,-99.99,,2013-06-25 06:43:00,
2013-06-25 02:52:00,82.0,-99.9,-100.00,North,-999,-999.0,-999.0,-999,-99.99,,,-99.99,,2013-06-25 06:52:00,
2013-06-25 03:02:00,82.0,-99.9,30.06,North,-999,-999.0,-999.0,-999,-99.99,,,-99.99,,2013-06-25 07:02:00,
2013-06-25 03:43:00,81.0,-99.9,30.05,North,-999,-999.0,-999.0,-999,-99.99,,,-99.99,,2013-06-25 07:43:00,
2013-06-25 04:22:00,81.0,-99.9,-100.00,North,-999,-999.0,-999.0,-999,-99.99,,,-99.99,,2013-06-25 08:22:00,
2013-06-25 05:22:00,82.0,-99.9,-100.00,North,-999,-999.0,-999.0,-999,-99.99,,,-99.99,,2013-06-25 09:22:00,
2013-06-25 05:33:00,82.0,-99.9,-100.00,North,-999,-999.0,-999.0,-999,-99.99,,,-99.99,,2013-06-25 09:33:00,
2013-06-25 05:43:00,81.0,-99.9,30.04,North,-999,-999.0,-999.0,-999,-99.99,,,-99.99,,2013-06-25 09:43:00,
2013-06-25 06:11:00,81.0,-99.9,30.03,North,-999,-999.0,-999.0,-999,-99.99,,,-99.99,,2013-06-25 10:11:00,
2013-06-25 06:22:00,81.0,-99.9,30.03,North,-999,-999.0,-999.0,-999,-99.99,,,-99.99,,2013-06-25 10:22:00,
2013-06-25 06:33:00,81.0,-99.9,30.04,North,-999,-999.0,-999.0,-999,-99.99,,,-99.99,,2013-06-25 10:33:00,
2013-06-25 06:43:00,81.0,-99.9,30.03,North,-999,-999.0,-999.0,-999,-99.99,,,-99.99,,2013-06-25 10:43:00,
2013-06-25 07:12:00,81.0,-99.9,30.04,North,-999,-999.0,-999.0,-999,-99.99,,,-99.99,,2013-06-25 11:12:00,
2013-06-25 07:22:00,81.0,-99.9,30.04,North,-999,-999.0,-999.0,-999,-99.99,,,-99.99,,2013-06-25 11:22:00,
2013-06-25 07:34:00,81.0,-99.9,-100.00,North,-999,-999.0,-999.0,-999,-99.99,,,-99.99,,2013-06-25 11:34:00,
2013-06-25 07:43:00,81.0,-99.9,30.04,North,-999,-999.0,-999.0,-999,-99.99,,,-99.99,,2013-06-25 11:43:00,
2013-06-25 08:55:00,86.0,-99.9,-100.00,North,-999,-999.0,-999.0,-999,-99.99,,,-99.99,,2013-06-25 12:55:00,
2013-06-25 09:02:00,86.0,-99.9,30.05,North,-999,-999.0,-999.0,-999,-99.99,,,-99.99,,2013-06-25 13:02:00,
2013-06-25 09:22:00,86.0,-99.9,30.06,North,-999,-999.0,-999.0,-999,-99.99,,,-99.99,,2013-06-25 13:22:00,
2013-06-25 11:02:00,89.0,-99.9,30.07,North,-999,-999.0,-999.0,-999,-99.99,,,-99.99,,2013-06-25 15:02:00,
2013-06-25 11:44:00,89.0,-99.9,-100.00,North,-999,-999.0,-999.0,-999,-99.99,,,-99.99,,2013-06-25 15:44:00,
2013-06-25 12:03:00,89.0,-99.9,30.08,North,-999,-999.0,-999.0,-999,-99.99,,,-99.99,,2013-06-25 16:03:00,
2013-06-25 12:23:00,89.0,-99.9,-100.00,North,-999,-999.0,-999.0,-999,-99.99,,,-99.99,,2013-06-25 16:23:00,
2013-06-25 12:35:00,89.0,-99.9,-100.00,North,-999,-999.0,-999.0,-999,-99.99,,,-99.99,,2013-06-25 16:35:00,
2013-06-25 13:01:00,89.0,-99.9,30.08,North,-999,-999.0,-999.0,-999,-99.99,,,-99.99,,2013-06-25 17:01:00,
2013-06-25 13:11:00,90.0,-99.9,30.07,North,-999,-999.0,-999.0,-999,-99.99,,,-99.99,,2013-06-25 17:11:00,
2013-06-25 13:22:00,91.0,-99.9,30.07,North,-999,-999.0,-999.0,-999,-99.99,,,-99.99,,2013-06-25 17:22:00,
2013-06-25 13:34:00,91.0,-99.9,30.07,North,-999,-999.0,-999.0,-999,-99.99,,,-99.99,,2013-06-25 17:34:00,
2013-06-25 13:44:00,90.0,-99.9,-100.00,North,-999,-999.0,-999.0,-999,-99.99,,,-99.99,,2013-06-25 17:44:00,
2013-06-25 14:02:00,90.0,-99.9,30.08,North,-999,-999.0,-999.0,-999,-99.99,,,-99.99,,2013-06-25 18:02:00,
2013-06-25 14:12:00,90.0,-99.9,30.07,North,-999,-999.0,-999.0,-999,-99.99,,,-99.99,,2013-06-25 18:12:00,
2013-06-25 14:23:00,91.0,-99.9,30.07,North,-999,-999.0,-999.0,-999,-99.99,,,-99.99,,2013-06-25 18:23:00,
2013-06-25 14:34:00,90.0,-99.9,30.07,North,-999,-999.0,-999.0,-999,-99.99,,,-99.99,,2013-06-25 18:34:00,
2013-06-25 15:12:00,91.0,-99.9,30.05,North,-999,-999.0,-999.0,-999,-99.99,,,-99.99,,2013-06-25 19:12:00,
2013-06-25 15:23:00,90.0,-99.9,30.05,North,-999,-999.0,-999.0,-999,-99.99,,,-99.99,,2013-06-25 19:23:00,
2013-06-25 15:33:00,91.0,-99.9,30.05,North,-999,-999.0,-999.0,-999,-99.99,,,-99.99,,2013-06-25 19:33:00,
2013-06-25 15:44:00,88.0,-99.9,-100.00,North,-999,-999.0,-999.0,-999,-99.99,,,-99.99,,2013-06-25 19:44:00,
2013-06-25 16:11:00,90.0,-99.9,30.04,North,-999,-999.0,-999.0,-999,-99.99,,,-99.99,,2013-06-25 20:11:00,
2013-06-25 16:22:00,90.0,-99.9,30.04,North,-999,-999.0,-999.0,-999,-99.99,,,-99.99,,2013-06-25 20:22:00,
2013-06-25 16:33:00,91.0,-99.9,30.03,North,-999,-999.0,-999.0,-999,-99.99,,,-99.99,,2013-06-25 20:33:00,
2013-06-25 16:43:00,91.0,-99.9,30.02,North,-999,-999.0,-999.0,-999,-99.99,,,-99.99,,2013-06-25 20:43:00,
2013-06-25 16:52:00,91.0,-99.9,30.02,North,-999,-999.0,-999.0,-999,-99.99,,,-99.99,,2013-06-25 20:52:00,
2013-06-25 17:22:00,86.0,-99.9,30.00,North,-999,-999.0,-999.0,-999,-99.99,,,-99.99,,2013-06-25 21:22:00,
2013-06-25 17:34:00,86.0,-99.9,30.00,North,-999,-999.0,-999.0,-999,-99.99,,,-99.99,,2013-06-25 21:34:00,
2013-06-25 17:43:00,87.0,-99.9,30.01,North,-999,-999.0,-999.0,-999,-99.99,,,-99.99,,2013-06-25 21:43:00,
2013-06-25 17:53:00,87.0,-99.9,30.01,North,-999,-999.0,-999.0,-999,-99.99,,,-99.99,,2013-06-25 21:53:00,
2013-06-25 18:01:00,88.0,-99.9,30.01,North,-999,-999.0,-999.0,-999,-99.99,,,-99.99,,2013-06-25 22:01:00,
2013-06-25 19:02:00,89.0,-99.9,-100.00,North,-999,-999.0,-999.0,-999,-99.99,,,-99.99,,2013-06-25 23:02:00,
2013-06-25 19:44:00,85.0,-99.9,-100.00,North,-999,-999.0,-999.0,-999,-99.99,,,-99.99,,2013-06-25 23:44:00,
2013-06-25 19:52:00,85.0,-99.9,30.02,North,-999,-999.0,-999.0,-999,-99.99,,,-99.99,,2013-06-25 23:52:00,
2013-06-25 20:02:00,85.0,-99.9,30.02,North,-999,-999.0,-999.0,-999,-99.99,,,-99.99,,2013-06-26 00:02:00,
2013-06-25 20:11:00,85.0,-99.9,30.02,North,-999,-999.0,-999.0,-999,-99.99,,,-99.99,,2013-06-26 00:11:00,
2013-06-25 20:22:00,85.0,-99.9,-100.00,North,-999,-999.0,-999.0,-999,-99.99,,,-99.99,,2013-06-26 00:22:00,
2013-06-25 20:33:00,85.0,-99.9,30.02,North,-999,-999.0,-999.0,-999,-99.99,,,-99.99,,2013-06-26 00:33:00,
2013-06-25 20:42:00,84.0,-99.9,-100.00,North,-999,-999.0,-999.0,-999,-99.99,,,-99.99,,2013-06-26 00:42:00,
2013-06-25 20:53:00,84.0,-99.9,30.02,North,-999,-999.0,-999.0,-999,-99.99,,,-99.99,,2013-06-26 00:53:00,
2013-06-25 21:11:00,84.0,-99.9,-100.00,North,-999,-999.0,-999.0,-999,-99.99,,,-99.99,,2013-06-26 01:11:00,
2013-06-25 21:22:00,83.0,-99.9,30.01,North,-999,-999.0,-999.0,-999,-99.99,,,-99.99,,2013-06-26 01:22:00,
2013-06-25 21:33:00,83.0,-99.9,30.01,North,-999,-999.0,-999.0,-999,-99.99,,,-99.99,,2013-06-26 01:33:00,
2013-06-25 22:11:00,83.0,-99.9,30.00,North,-999,-999.0,-999.0,-999,-99.99,,,-99.99,,2013-06-26 02:11:00,
2013-06-25 22:22:00,83.0,-99.9,-100.00,North,-999,-999.0,-999.0,-999,-99.99,,,-99.99,,2013-06-26 02:22:00,
2013-06-25 22:44:00,83.0,-99.9,-100.00,North,-999,-999.0,-999.0,-999,-99.99,,,-99.99,,2013-06-26 02:44:00,
2013-06-25 23:22:00,83.0,-99.9,-100.00,North,-999,-999.0,-999.0,-999,-99.99,,,-99.99,,2013-06-26 03:22:00,
2013-06-25 23:33:00,83.0,-99.9,30.03,North,-999,-999.0,-999.0,-999,-99.99,,,-99.99,,2013-06-26 03:33:00,
2013-06-25 23:43:00,83.0,-99.9,30.03,North,-999,-999.0,-999.0,-999,-99.99,,,-99.99,,2013-06-26 03:43:00,